Regional Weather Roundup
Issued by NWS

Home | Current Version | Previous Version | Graphics & Text | Print | Product List | Glossary On
Versions: 1 2 3 4 5 6 7 8 9 10 11 12 13 14 15 16 17 18 19 20 21 22 23 24 25 26 27
000
ASUS45 KBOU 232207
RWRCO

WEATHER ROUNDUP FOR COLORADO
NATIONAL WEATHER SERVICE DENVER/BOULDER CO
400 PM MDT WED AUG 23 2017

NOTE: "FAIR" INDICATES FEW OR NO CLOUDS BELOW 12000 FEET WITH NO
SIGNIFICANT WEATHER AND/OR OBSTRUCTIONS TO VISIBILITY.

COZ001>005-013-030-031-232300-
...NORTHWEST COLORADO...

CITY           SKY/WX    TMP DP  RH WIND       PRES   REMARKS
CRAIG          PTSUNNY   79  40  24 S15       30.22S
HAYDEN         TSTM      65  54  67 S5        30.29R
MEEKER         FAIR      80  41  24 S10       30.23F
RABBIT EARS PA MOCLDY    54  37  54 NW7       30.55S
STEAMBOAT SPGS FAIR      66  47  50 SW5       30.29S
WALDEN         CLOUDY    61  39  44 SW21G29   30.37R
$$

COZ006>008-011-232300-
...WEST CENTRAL VALLEYS...

CITY           SKY/WX    TMP DP  RH WIND       PRES   REMARKS
GRAND JUNCTION FAIR      91  38  15 W12       30.09F
MONTROSE       FAIR      86  40  19 NW10      30.18F
EAGLE          FAIR      81  38  21 SW14G23   30.24F
RIFLE          FAIR      83  44  25 N9        30.15S
DELTA          FAIR      92  32  12 W9        30.11F
NUCLA          FAIR      84  32  15 W6        30.22F
$$

COZ017>023-064>068-232300-
...SOUTHWEST COLORADO...

CITY           SKY/WX    TMP DP  RH WIND       PRES   REMARKS
DURANGO        FAIR      83  35  18 SW15G25   30.23F
CORTEZ         FAIR      87  33  14 NW14G22   30.17F
PAGOSA SPRINGS FAIR      72  55  54 CALM      30.31F
TELLURIDE      NOT AVBL
WOLF CREEK PAS FAIR      59  41  51 SW12G20   30.68F
$$

COZ009-010-012-014-032>034-037-058>063-232300-
...CENTRAL COLORADO...

CITY           SKY/WX    TMP DP  RH WIND       PRES   REMARKS
ASPEN          FAIR      73  39  29 S5        30.32F
BUENA VISTA    CLOUDY    67  42  40 SE3       30.36R
COPPER MTN     TSTM      46  37  71 S16G24    30.66R
BERTHOUD PASS  TSTM      43  37  81 E20       30.66F
COTTONWOOD PAS LGT RAIN  61  41  48 SE6       30.49F
GUNNISON       FAIR      78  36  21 W12G21    30.29F
KREMMLING      FAIR      79  30  17 N18G24    30.30R
LEADVILLE      FAIR      57  43  59 NE8       30.48F
MONARCH PASS   FAIR      61  32  33 W16G33    30.73F
SALIDA         FAIR      73  41  30 N13G36    30.36R
SUNLIGHT       CLOUDY    57  36  44 W5        30.58F
WILKERSON PASS PTSUNNY   54  37  54 NE13      30.62S
$$

COZ069>075-232300-
...SAN LUIS VALLEY/SANGRE DE CRISTO MOUNTAINS...

CITY           SKY/WX    TMP DP  RH WIND       PRES   REMARKS
ALAMOSA        FAIR      81  34  18 VRB3G16   30.28F
DEL NORTE      FAIR      75  44  32 SW6       30.31F
LA VETA PASS   NOT AVBL
SAGUACHE         N/A    N/A N/A N/A MISG        N/A
$$

COZ035-036-038>040-232300-
...NORTHERN COLORADO FRONT RANGE...

CITY           SKY/WX    TMP DP  RH WIND       PRES   REMARKS
DENVER INTL AP PTSUNNY   88  33  14 N12G17    30.11F
DMNS CITY PARK   N/A     87  36  16 N3        30.11F
AURORA         PTSUNNY   89  38  16 CALM      30.13F
FRONT RANGE AP FAIR      88  36  15 N8G18     30.12F
ERIE MUNI ARPT FAIR      83  39  20 NW14G24   30.16S
BOULDER MUN AP FAIR      81  41  24 W14       30.14S
CENTENNIAL     PTSUNNY   87  36  16 NW14      30.15F
BROOMFIELD     PTSUNNY   82  45  26 W20G26    30.16F
FORT COLLINS   FAIR      82  49  31 W8        30.12F
LONGMONT       FAIR      80  47  30 NW12      30.15S
$$

COZ041-046-047-076>085-087-088-232300-
...PIKES PEAK/PALMER DIVIDE AND SOUTHERN FOOTHILLS...

CITY           SKY/WX    TMP DP  RH WIND       PRES   REMARKS
COLO. SPRINGS  FAIR      81  50  33 S12       30.19F
A. F. ACADEMY  PTSUNNY   75  46  35 SW8       30.21R THUNDER
SCHRIEVER AFB  FAIR      79  45  29 SE10      30.19F HAZE
CHEYENNE MTN   PTSUNNY   72  49  43 S5        30.19F
ELLICOTT       FAIR     N/A N/A N/A SE9       30.18F
FALCON         FAIR      75  43  32 SE3       30.26S
FORT CARSON    FAIR      80  52  38 SE8       30.15F
LIMON          FAIR      83  52  34 S13G21    30.13F
MONUMENT HILL  FAIR      72  48  43 S9        30.26S
CANON CITY     SUNNY     88  54  31 NE9       30.11F
WALSENBURG     FAIR      90  46  22 E12       30.15F
TRINIDAD       FAIR      84  44  24 VRB5      30.14F
$$

COZ042>045-048>051-090-091-232300-
...NORTHEAST COLORADO...

CITY           SKY/WX    TMP DP  RH WIND       PRES   REMARKS
GREELEY ARPT   FAIR      87  50  27 N13       30.09F
AKRON          FAIR      88  45  22 S7        30.04F
BURLINGTON     FAIR      86  57  37 S16G26    30.08F
WRAY           FAIR      90  55  31 S15G22    30.03F
YUMA           FAIR      86  59  39 SE12      30.03F
STERLING       FAIR      90  50  25 CALM      29.99F
HOLYOKE        FAIR      86  61  42 S14       30.03F
FORT MORGAN    FAIR      94  41  16 N6        30.05F
$$

COZ086-089-092>099-232300-
...SOUTHEAST COLORADO...

CITY           SKY/WX    TMP DP  RH WIND       PRES   REMARKS
PUEBLO         FAIR      90  45  21 SE6       30.05F
LA JUNTA       FAIR      88  58  36 SE14      30.04F
LAMAR          FAIR      85  60  42 S17G24    30.04F
SPRINGFIELD      N/A     78  61  55 S15       30.12F
$$




USA.gov is the U.S. government's official web portal to all federal, state and local government web resources and services.